This is the latest recevied weather packets stored in our database for station/object NK7I. If no packets are shown the sender has not sent any weather packets the latest 10 day(s).
| Time | Temp. | Humidity | Pressure | Rain* | Wind** | Luminosity | Snow |
|---|---|---|---|---|---|---|---|
| 1778027483 | 23.33° C | 31% | 1009.6 hPa | 0 mm | - | 482 W/m² | - |
| 1778027183 | 23.89° C | 28% | 1009.7 hPa | 0 mm | - | 506 W/m² | - |
| 1778026883 | 23.89° C | 27% | 1009.7 hPa | 0 mm | - | 527 W/m² | - |
| 1778026583 | 23.89° C | 30% | 1009.8 hPa | 0 mm | - | 550 W/m² | - |
| 1778026285 | 23.33° C | 28% | 1009.9 hPa | 0 mm | - | 573 W/m² | - |
| 1778025983 | 23.33° C | 25% | 1010 hPa | 0 mm | - | 591 W/m² | - |
| 1778025683 | 23.33° C | 29% | 1009.9 hPa | 0 mm | - | 612 W/m² | - |
| 1778025383 | 23.33° C | 31% | 1010.1 hPa | 0 mm | - | 633 W/m² | - |
| 1778025083 | 23.33° C | 28% | 1010.1 hPa | 0 mm | - | 656 W/m² | - |
| 1778024783 | 23.33° C | 29% | 1010.2 hPa | 0 mm | - | 679 W/m² | - |
| 1778024483 | 23.33° C | 31% | 1010.2 hPa | 0 mm | - | 698 W/m² | - |
| 1778024184 | 23.33° C | 26% | 1010.3 hPa | 0 mm | - | 721 W/m² | - |
| 1778023883 | 23.33° C | 29% | 1010.4 hPa | 0 mm | - | 737 W/m² | - |
| 1778023583 | 23.33° C | 30% | 1010.7 hPa | 0 mm | - | 758 W/m² | - |
| 1778023283 | 23.33° C | 29% | 1010.5 hPa | 0 mm | - | 780 W/m² | - |
| 1778022983 | 22.78° C | 29% | 1010.6 hPa | 0 mm | - | 798 W/m² | - |
| 1778022683 | 22.78° C | 31% | 1010.7 hPa | 0 mm | - | 819 W/m² | - |
| 1778022383 | 22.78° C | 33% | 1010.8 hPa | 0 mm | - | 842 W/m² | - |
| 1778022082 | 22.78° C | 32% | 1010.8 hPa | 0 mm | - | 856 W/m² | - |
| 1778021782 | 22.22° C | 30% | 1010.9 hPa | 0 mm | - | 881 W/m² | - |
| 1778021483 | 22.22° C | 27% | 1010.9 hPa | 0 mm | - | 895 W/m² | - |
| 1778021183 | 22.22° C | 35% | 1010.9 hPa | 0 mm | - | 912 W/m² | - |
| 1778020882 | 22.22° C | 29% | 1010.9 hPa | 0 mm | - | 932 W/m² | - |
| 1778020582 | 21.67° C | 33% | 1011 hPa | 0 mm | - | 949 W/m² | - |
| 1778020282 | 22.22° C | 34% | 1011.1 hPa | 0 mm | - | 967 W/m² | - |
* Rain latest hour (hover to see other rain measurements)
** Current wind speed in m/s (hover to see current wind gust speed)